National Weather Service Hourly Weather Roundup
NOAA NWS Hourly Roundups by Site
NOAA NWS Hourly Roundups by Site
Regional Weather Roundup for Sacramento, CA

To Select Another Site Choose from List

Select Site:  

000
ASUS46 KSTO 242209
RWRCA

NORTHERN AND CENTRAL CA REGIONAL WEATHER ROUNDUP
NATIONAL WEATHER SERVICE SACRAMENTO CA
300 PM PDT FRI MAY 24 2019

NOTE: FAIR INDICATES FEW OR NO CLOUDS BELOW 12,000 FEET WITH NO
SIGNIFICANT WEATHER AND/OR OBSTRUCTIONS TO VISIBILITY.

CAZ001-003-242300-
NORTHWEST AREA

CITY           SKY/WX    TMP DP  RH WIND       PRES   REMARKS
CRESCENT CITY  PTSUNNY   58  52  80 N15G26    30.04F
ARCATA         NOT AVBL
SHELTER COVE   NOT AVBL
UKIAH          SUNNY     75  55  49 VRB5      29.92F
$$

CAZ006-505>513-242300-
BAY AREA

CITY           SKY/WX    TMP DP  RH WIND       PRES   REMARKS
SANTA ROSA     MOSUNNY   68  56  65 S12G17    29.96F
SAN RAFAEL     N/A      MM  MM  MM MISG
NAPA           MOSUNNY   67  56  67 S16G22    29.97F
CONCORD        SUNNY     73  52  47 W8        29.95F
OAKLAND CITY   N/A       65  MM  MM MISG
OAKLAND        MOSUNNY   66  53  63 NW13      30.00F
SAN FRAN CITY  N/A       61  MM  68 MISG
SAN FRAN ARPT  MOSUNNY   67  54  63 NW14      29.97F
LIVERMORE      SUNNY     73  54  51 NW13      29.95F
HAYWARD        SUNNY     68  54  60 W10       29.98F
REDWOOD CITY   N/A       67  MM  67 MISG
MOFFETT ARPT   SUNNY     69  56  62 NW12      29.98F
SAN JOSE ARPT  MOSUNNY   72  58  61 VRB6      29.96F
$$
CAZ034-037-514>518-242300-
CENTRAL COAST

CITY           SKY/WX    TMP DP  RH WIND       PRES   REMARKS
WATSONVILLE    SUNNY     66  54  65 W8        30.01F
SALINAS        SUNNY     68  52  56 W10       29.99F
MONTEREY       MOSUNNY   62  51  67 N8        30.01F
PT PIEDRAS BLS NOT AVBL
SAN LUIS OBISP SUNNY     67  52  58 NW20G26   29.96F
SANTA MARIA    MOSUNNY   69  54  58 NW17G24   29.97F
$$
CAZ015-016-242300-
NORTHERN SACRAMENTO VALLEY

CITY           SKY/WX    TMP DP  RH WIND       PRES   REMARKS
REDDING        MOSUNNY   77  53  43 S7        29.88F
RED BLUFF      MOSUNNY   76  53  44 VRB6      29.91F
OROVILLE       MOSUNNY   76  54  46 VRB7      29.93F
$$
CAZ016>018-242300-
SOUTHERN SACRAMENTO VALLEY

CITY           SKY/WX    TMP DP  RH WIND       PRES   REMARKS
AUBURN         MOSUNNY   68  55  64 CALM      29.97F
BEALE AFB      MOSUNNY   75  55  48 S8        29.91F
LINCOLN        FAIR      73  54  49 S7        29.92F
MARYSVILLE     SUNNY     74  57  55 SE10      29.92F
SAC INTL ARPT  MOSUNNY   74  57  55 S12       29.92F
MATHER AIRPORT SUNNY     73  54  49 S10       29.93F
DOWNTOWN SAC   N/A       74  MM  MM MISG
SAC EXEC ARPT  SUNNY     74  55  51 SW12      29.94F
VACAVILLE      SUNNY     76  58  53 S13G20    29.93F
TRAVIS AFB     SUNNY     73  56  54 SW20      29.93F
$$
CAZ019>021-242300-
SAN JOAQUIN VALLEY

CITY           SKY/WX    TMP DP  RH WIND       PRES   REMARKS
STOCKTON       MOSUNNY   76  54  46 VRB3      29.94F
MODESTO        PTSUNNY   75  55  49 SE3       29.94F
MERCED         MOSUNNY   75  55  49 CALM      29.94F
LEMOORE        MOSUNNY   76  54  46 MISG      29.95F
FRESNO         PTSUNNY   74  51  44 W3        29.95F
HANFORD        MOSUNNY   76  54  46 VRB5      29.95F
PORTERVILLE    SUNNY     77  53  43 NW9       29.95F
BAKERSFIELD    SUNNY     78  50  37 NW10G23   29.92F
$$
CAZ011-012-071-242300-
NORTHERN MOUNTAINS

CITY           SKY/WX    TMP DP  RH WIND       PRES   REMARKS
YREKA          SUNNY     73  41  31 VRB3      29.92F
MOUNT SHASTA   SUNNY     72  39  30 NE7       29.93F
ALTURAS        PTSUNNY   64  34  32 W8G21     29.94F
$$
CAZ011-012-071-242300-
SIERRA NEVADA MTNS

CITY           SKY/WX    TMP DP  RH WIND       PRES   REMARKS
BLUE CANYON    CLOUDY    50  46  86 CALM      30.06F
TRUCKEE        CLOUDY    57  39  51 W15       30.04
TAHOE VLY ARPT CLOUDY    57  31  37 CALM      30.03F
MAMMOTH LAKES  CLOUDY    55  29  37 E6        30.07F
$$


 

View Past Reports for Sacramento, CA.

Products Courtesy of NOAA-NWS
NWS Information Parsing Script by Ken True at Saratoga Weather - Script by SE Lincoln Weather.

powered by Cumulus v1.9.3 (1059)
Ambient Weather VWS v14.00
Top Contact Website Map Copyright © 2007 - 2019 Foresthillweather.com Never base important decisions on this or any weather information obtained from the Internet